STARLINK-5091 (54873 NORAD) Tracking and Keplerian Element Data

This shows tracking and keplerian element data for the satellite.

Feedback or suggestion? Click here.




ElementValue
Catalog54873
NameSTARLINK-5091
Epoch Orbit1373
Epoch Day85.11275389
Epoch Year2023
RAAN226.0254
Inclination43.004
Eccentricity0.0001806
Argument of Perigee266.2644
Mean Anonmoly93.7992
Mean Motion15.02528049
Decay Rate-1.611E-05
L11 54873U 22177BF 23085.11275389 -.00001611 00000+0 -10421-3 0 9991
L22 54873 43.0040 226.0254 0001806 266.2644 93.7992 15.02528049 13735



Live tracking and technical data element details for STARLINK-5091 (NORAD 54873). STARLINK-5091 can be tracked NOW for your location showing map with azimuth and elevation plus other details from your city location.







IsCatalogInMostPopularTable: catalog: 54873, numindb: 46
Update: records affected: 1



GetName: 54873 STARLINK-5091

Hit Count: updated at: Mon, 27 Mar 2023 07:21:29 GMT